Location: Newark
(42.9858°N, 0.6717°E)
Time: 17:58:10
(UTC+00:00)

Transit 2A Rocket - Visible Passes

Search period start: 20 November 2019 00:00
Search period end: 30 November 2019 00:00
Orbit: 594 x 909 km, 66.7° (Epoch: 20 November)

Date Brightness Start Highest point End Pass type
(mag) Time Alt. Az. Time Alt. Az. Time Alt. Az.
20 Nov 5.7 05:34:20 10° NNW 05:38:29 41° NE 05:42:47 10° SE visible
21 Nov 6.5 04:52:48 13° N 04:55:47 25° NE 04:59:31 10° ESE visible
22 Nov 7.0 04:11:47 14° NNE 04:12:58 16° NE 04:15:41 10° E visible
22 Nov 4.5 05:51:43 11° NW 05:55:57 73° WSW 06:00:34 10° SSE visible
23 Nov 5.0 05:10:46 23° NNW 05:13:26 61° ENE 05:18:00 10° SE visible
24 Nov 5.9 04:29:52 31° NNE 04:30:49 34° NE 04:35:00 10° ESE visible
24 Nov 5.7 06:09:49 11° WNW 06:13:13 26° WSW 06:17:05 10° SSW visible
25 Nov 7.0 03:49:03 20° ENE 03:49:03 20° ENE 03:51:33 10° E visible
25 Nov 4.8 05:29:00 30° WNW 05:30:49 48° WSW 05:35:19 10° S visible
26 Nov 4.4 04:48:15 86° NNW 04:48:21 90° WNW 04:53:01 10° SSE visible
27 Nov 6.2 04:07:34 32° ESE 04:07:34 32° ESE 04:10:18 10° SE visible
27 Nov 6.1 05:47:31 18° W 05:48:00 18° WSW 05:51:08 10° SSW visible
27 Nov 6.8 18:37:39 10° S 18:38:45 16° SSE 18:38:45 16° SSE visible
28 Nov 7.7 03:26:57 11° ESE 03:26:57 11° ESE 03:27:09 10° ESE visible
28 Nov 5.8 05:06:54 28° SW 05:06:54 28° SW 05:09:50 10° S visible
28 Nov 6.5 17:56:31 10° SSE 17:58:09 15° SE 17:58:09 15° SE visible
28 Nov 7.1 19:36:58 10° SW 19:38:06 17° SW 19:38:06 17° SW visible
29 Nov 6.6 04:26:20 20° SSE 04:26:20 20° SSE 04:27:52 10° SSE visible
29 Nov 5.6 18:54:19 10° SSW 18:57:26 41° SSW 18:57:26 41° SSW visible
